Air Resources Laboratory banner image
Air Resources Laboratory web site National Oceanic and Atmospheric Administration (NOAA)

mo roundup


Office: LSX

ASUS43 KLSX 211107
RWRMO

WEATHER SUMMARY FOR MISSOURI
NATIONAL WEATHER SERVICE SPRINGFIELD MO
500 AM CST WED NOV 21 2018

NOTE: "FAIR" INDICATES FEW OR NO CLOUDS BELOW 12,000 FEET WITH NO
       SIGNIFICANT WEATHER AND/OR OBSTRUCTIONS TO VISIBILITY.
       CURRENT SKY AND/OR WEATHER CONDITIONS ARE NOT AVAILABLE FOR
       CHILLICOTHE AND FARMINGTON.

MOZ001>031-035>038-043-044-053-054-211200-
...NORTHERN AND WESTERN MISSOURI...

CITY           SKY/WX    TMP DP  RH WIND       PRES   REMARKS
KANSAS CTY INT CLEAR     37  30  75 SW10      30.20F WCI  30
KANSAS C DTWN  CLEAR     38  29  70 SW6       30.22F
LEE'S SUMMIT   CLEAR     38  31  76 SW10      30.23S
ST JOSEPH      CLEAR     25  24  96 CALM      30.21R
CHILLICOTHE      N/A     28  26  92 CALM      30.22R
KIRKSVILLE     CLEAR     32  28  85 SW7       30.20R WCI  26

$$
MOZ066>068-077>081-088>096-101>105-211200-
...SOUTHWEST MISSOURI...

CITY           SKY/WX    TMP DP  RH WIND       PRES   REMARKS
SPRINGFIELD    CLEAR     29  24  82 S7        30.28S WCI  22
JOPLIN         CLEAR     33  27  78 S6        30.30S WCI  28

$$
MOZ032>034-039>042-045>050-055>058-069>072-211200-
...CENTRAL MISSOURI...

CITY           SKY/WX    TMP DP  RH WIND       PRES   REMARKS
COLUMBIA       CLEAR     31  25  78 SW7       30.25R WCI  24
JEFFERSON CITY CLEAR     27  24  89 CALM      30.27S
ROLLA          CLEAR     33  26  75 SW10      30.27R WCI  25
SEDALIA        CLEAR     36  30  79 SW16G25   30.25S WCI  26
WARRENSBURG    CLEAR     32  28  86 S6        30.25S WCI  26
OSAGE BEACH    CLEAR     27  25  92 S3        30.28S

$$
MOZ051-052-059>065-211200-
...EAST CENTRAL MISSOURI...

CITY           SKY/WX    TMP DP  RH WIND       PRES   REMARKS
ST LOUIS INTL  CLEAR     33  27  78 CALM      30.25S
SPIRIT OF STL  CLEAR     36  28  73 W8        30.25S WCI  30
ST CHARLES     CLEAR     27  26  96 CALM      30.25S FOG

$$
MOZ072>076-082>087-097>100-106>115-211200-
...SOUTH CENTRAL AND SOUTHEAST MISSOURI...

CITY           SKY/WX    TMP DP  RH WIND       PRES   REMARKS
CAPE GIRARDEAU FAIR      24  22  91 CALM      30.33F FOG
FARMINGTON     CLEAR     25  23  92 S3        30.28S
POPLAR BLUFF   FAIR      25  24  96 CALM      30.34S
WEST PLAINS    CLEAR     30  24  78 W5        30.30S WCI  25

$$




Office: EAX ASUS43 KEAX 211110 RWREAX WEATHER ROUNDUP FOR EASTERN KANSAS AND NORTHWEST MISSOURI NATIONAL WEATHER SERVICE KANSAS CITY/PLEASANT HILL MO 500 AM CST WED NOV 21 2018 KSZ040-057-103>105-MOZ028-029-037-043-211200- ...KANSAS CITY METROPOLITAN AREA... CITY SKY/WX TMP DP RH WIND PRES REMARKS K.C. INTL CLEAR 37 30 75 SW10 30.20F WCI 30 K.C. DOWNTOWN CLEAR 38 29 70 SW6 30.22F WCI 33 LEES SUMMIT CLEAR 38 31 76 SW10 30.23S WCI 31 OLATHE - IXD CLEAR 34 29 82 S6 30.23F WCI 29 OLATHE - OJC CLEAR 36 30 79 SW7 30.23S WCI 30 LAWRENCE CLEAR 30 26 85 S3 30.23S $$ MOZ001>008-011>017-020>025-030>033-038>040-044>046-053-054-211200- ...NORTHERN AND CENTRAL MISSOURI... CITY SKY/WX TMP DP RH WIND PRES REMARKS ST. JOSEPH CLEAR 25 24 96 CALM 30.21R MOSBY SUNNY 30 27 86 CALM 30.22S WARRENSBURG CLEAR 32 28 86 S6 30.25S WCI 26 WHITEMAN AFB NOT AVBL CLINTON CLEAR 32 28 86 SW6 30.28R WCI 26 SEDALIA CLEAR 36 30 79 SW16G25 30.25S WCI 26 WARSAW NOT AVBL CHILLICOTHE N/A 28 26 92 CALM 30.22R KIRKSVILLE CLEAR 32 28 85 SW7 30.20R WCI 26 $$ MOZ041-047>049-056>058-063>065-088>090-097-211200- ...EASTERN AND SOUTHERN MISSOURI... CITY SKY/WX TMP DP RH WIND PRES REMARKS ST. LOUIS INTL CLEAR 33 27 78 CALM 30.25S SPIRIT OF STL CLEAR 36 28 73 W8 30.25S WCI 30 COLUMBIA CLEAR 31 25 78 SW7 30.25R WCI 24 JEFFERSON CITY CLEAR 27 24 89 CALM 30.27S ROLLA CLEAR 33 26 75 SW10 30.27R WCI 25 OSAGE BEACH CLEAR 27 25 92 S3 30.28S SPRINGFIELD CLEAR 29 24 82 S7 30.28S WCI 22 JOPLIN CLEAR 33 27 78 S6 30.30S WCI 28 WEST PLAINS CLEAR 30 24 78 W5 30.30S WCI 25 $$ IAZ060-094-KSZ022-034>040-054-083-096-NEZ052-066-093-211200- ...KANSAS...SOUTHEAST NEBRASKA AND IOWA... CITY SKY/WX TMP DP RH WIND PRES REMARKS TOPEKA CLEAR 37 29 72 SW3 30.22S MANHATTAN CLEAR 35 31 85 SW8 30.20F WCI 29 EMPORIA CLEAR 37 30 75 SW7 30.23S WCI 32 CHANUTE CLEAR 33 29 85 S6 30.27S WCI 28 WICHITA CLEAR 31 28 89 S8 30.23S WCI 23 OMAHA CLEAR 31 28 89 SE5 30.14F WCI 26 LINCOLN CLEAR 26 24 92 S3 30.15S FALLS CITY CLEAR 38 30 73 CALM 30.17S LAMONI CLEAR 34 29 82 SW7 30.16S WCI 28 DES MOINES CLEAR 27 26 96 CALM 30.18R $$